This is the latest recevied weather packets stored in our database for station/object KB4MOX. If no packets are shown the sender has not sent any weather packets the latest 10 day(s).
| Time | Temp. | Humidity | Pressure | Rain* | Wind** | Luminosity | Snow |
|---|---|---|---|---|---|---|---|
| 1787960085 | 27.78° C | 78% | 1017 hPa | 0 mm | - | 25 W/m² | - |
| 1787959780 | 27.78° C | 78% | 1016.9 hPa | 0 mm | - | 30 W/m² | - |
| 1787959475 | 28.33° C | 77% | 1016.9 hPa | 0 mm | - | 33 W/m² | - |
| 1787959170 | 28.33° C | 77% | 1016.8 hPa | 0 mm | - | 38 W/m² | - |
| 1787958865 | 28.89° C | 76% | 1016.8 hPa | 0 mm | - | 44 W/m² | - |
| 1787958560 | 28.89° C | 75% | 1016.9 hPa | 0 mm | - | 52 W/m² | - |
| 1787958266 | 28.89° C | 74% | 1017 hPa | 0 mm | - | 64 W/m² | - |
| 1787957955 | 28.89° C | 74% | 1016.8 hPa | 0 mm | - | 74 W/m² | - |
| 1787957655 | 28.89° C | 74% | 1017 hPa | 0 mm | - | 83 W/m² | - |
| 1787957351 | 29.44° C | 73% | 1016.8 hPa | 0 mm | - | 102 W/m² | - |
| 1787957050 | 29.44° C | 73% | 1016.7 hPa | 0 mm | - | 116 W/m² | - |
| 1787956749 | 29.44° C | 73% | 1016.7 hPa | 0 mm | - | 126 W/m² | - |
| 1787956445 | 28.89° C | 74% | 1016.6 hPa | 0 mm | - | 140 W/m² | - |
| 1787956140 | 28.89° C | 75% | 1016.7 hPa | 0 mm | - | 128 W/m² | - |
| 1787955835 | 29.44° C | 74% | 1016.5 hPa | 0 mm | - | 88 W/m² | - |
| 1787955530 | 29.44° C | 73% | 1016.5 hPa | 0 mm | - | 100 W/m² | - |
| 1787955230 | 30° C | 72% | 1016.5 hPa | 0 mm | - | 112 W/m² | - |
| 1787954928 | 30.56° C | 71% | 1016.8 hPa | 0 mm | - | 118 W/m² | - |
| 1787954621 | 31.11° C | 69% | 1016.5 hPa | 0 mm | - | 167 W/m² | - |
| 1787954320 | 30° C | 70% | 1016.3 hPa | 0 mm | - | 286 W/m² | - |
| 1787954015 | 30° C | 72% | 1016.3 hPa | 0 mm | - | 244 W/m² | - |
| 1787953714 | 30° C | 73% | 1016.6 hPa | 0 mm | - | 158 W/m² | - |
| 1787953410 | 30° C | 71% | 1016.5 hPa | 0 mm | - | 134 W/m² | - |
| 1787953107 | 30° C | 71% | 1016.6 hPa | 0 mm | - | 180 W/m² | - |
| 1787952807 | 30° C | 70% | 1016.5 hPa | 0 mm | - | 172 W/m² | - |
* Rain latest hour (hover to see other rain measurements)
** Current wind speed in m/s (hover to see current wind gust speed)